{"data":{"norad_id":45456,"epoch":"2026-05-25T02:38:37.936320Z","epoch_age_seconds":68687,"freshness":"FRESH","line1":"1 45456U 20020AJ  26145.11016130  .00000453  00000+0  12421-2 0  9992","line2":"2 45456  87.8921  25.6516 0001632  57.1720 302.9564 13.11417773299587","mean_motion":13.11417773,"eccentricity":0.0001632,"inclination_deg":87.8921,"raan_deg":25.6516,"arg_perigee_deg":57.172,"mean_anomaly_deg":302.9564,"bstar":0.0012421,"rev_number":29958,"period_min":109.80482571209,"perigee_km":1216.4398638994,"apogee_km":1218.9191384054,"semimajor_km":7595.8165011524,"source":"CELESTRAK","updated_at":"2026-05-25T13:38:22.347900Z"}}